Time,TemperatureF,DewpointF,PressureIn,WindDirection,WindDirectionDegrees,WindSpeedMPH,WindSpeedGustMPH,Humidity,HourlyPrecipIn,Conditions,Clouds,dailyrainin,SoftwareType,DateUTC
2013-01-01 00:00:00,47.3,26.5,29.43,WSW,243,8.1,8.1,44,0.00,CLR,,0.00,WeatherDisplay:10.37,2013-01-01 05:00:00,
2013-01-01 00:05:00,47.1,26.3,29.43,SW,227,8.1,8.1,44,0.00,CLR,,0.00,WeatherDisplay:10.37,2013-01-01 05:05:00,
2013-01-01 00:10:00,47.1,26.3,29.43,WSW,244,8.1,8.1,44,0.00,CLR,,0.00,WeatherDisplay:10.37,2013-01-01 05:10:00,
2013-01-01 00:15:00,47.0,26.2,29.43,NW,309,8.1,8.1,44,0.00,CLR,,0.00,WeatherDisplay:10.37,2013-01-01 05:15:00,
2013-01-01 00:20:00,47.0,26.7,29.43,West,267,4.6,4.6,45,0.00,CLR,,0.00,WeatherDisplay:10.37,2013-01-01 05:20:00,
2013-01-01 00:25:00,46.8,27.1,29.43,SW,234,5.8,5.8,46,0.00,CLR,,0.00,WeatherDisplay:10.37,2013-01-01 05:25:00,
2013-01-01 00:30:00,46.7,27.0,29.43,SW,219,4.6,4.6,46,0.00,CLR,,0.00,WeatherDisplay:10.37,2013-01-01 05:30:00,
2013-01-01 00:35:00,46.5,26.8,29.43,SW,230,5.8,5.8,46,0.00,CLR,,0.00,WeatherDisplay:10.37,2013-01-01 05:35:00,
2013-01-01 00:40:00,46.4,27.2,29.43,WNW,296,5.8,5.8,47,0.00,CLR,,0.00,WeatherDisplay:10.37,2013-01-01 05:40:00,
2013-01-01 00:45:00,46.4,27.2,29.43,SW,229,5.8,5.8,47,0.00,CLR,,0.00,WeatherDisplay:10.37,2013-01-01 05:45:00,
2013-01-01 00:50:00,46.2,27.1,29.43,SW,215,3.5,3.5,47,0.00,CLR,,0.00,WeatherDisplay:10.37,2013-01-01 05:50:00,
2013-01-01 00:55:00,46.1,27.0,29.40,WSW,248,4.6,4.6,47,0.00,CLR,,0.00,WeatherDisplay:10.37,2013-01-01 05:55:00,
2013-01-01 01:00:00,46.1,27.0,29.40,WSW,250,8.1,8.1,47,0.00,CLR,,0.00,WeatherDisplay:10.37,2013-01-01 06:00:00,
2013-01-01 01:05:00,46.1,27.0,29.40,SW,224,4.6,4.6,47,0.00,CLR,,0.00,WeatherDisplay:10.37,2013-01-01 06:05:00,
2013-01-01 01:10:00,46.1,27.0,29.40,WSW,237,6.9,6.9,47,0.00,CLR,,0.00,WeatherDisplay:10.37,2013-01-01 06:10:00,
2013-01-01 01:15:00,46.1,27.0,29.40,SSW,206,5.8,5.8,47,0.00,CLR,,0.00,WeatherDisplay:10.37,2013-01-01 06:15:00,
2013-01-01 01:20:00,46.1,27.5,29.40,West,261,4.6,4.6,48,0.00,CLR,,0.00,WeatherDisplay:10.37,2013-01-01 06:20:00,
2013-01-01 01:25:00,46.1,28.0,29.41,SW,226,5.8,5.8,49,0.00,CLR,,0.00,WeatherDisplay:10.37,2013-01-01 06:25:00,
2013-01-01 01:30:00,46.1,27.0,29.41,WSW,258,10.4,10.4,47,0.00,CLR,,0.00,WeatherDisplay:10.37,2013-01-01 06:30:00,
2013-01-01 01:35:00,46.2,27.1,29.41,WSW,244,5.8,5.8,47,0.00,CLR,,0.00,WeatherDisplay:10.37,2013-01-01 06:35:00,
2013-01-01 01:40:00,46.2,27.1,29.40,WSW,244,8.1,8.1,47,0.00,CLR,,0.00,WeatherDisplay:10.37,2013-01-01 06:40:00,
2013-01-01 01:45:00,46.2,27.1,29.40,WSW,256,5.8,5.8,47,0.00,CLR,,0.00,WeatherDisplay:10.37,2013-01-01 06:45:00,
2013-01-01 01:50:00,46.2,27.1,29.40,West,275,6.0,6.0,47,0.00,CLR,,0.00,WeatherDisplay:10.37,2013-01-01 06:50:00,
2013-01-01 01:55:00,46.2,27.1,29.40,WSW,241,6.9,6.9,47,0.00,CLR,,0.00,WeatherDisplay:10.37,2013-01-01 06:55:00,
2013-01-01 02:00:00,46.2,27.1,29.40,WSW,239,3.5,3.5,47,0.00,CLR,,0.00,WeatherDisplay:10.37,2013-01-01 07:00:00,
2013-01-01 02:05:00,46.2,27.1,29.40,SSW,209,6.0,6.0,47,0.00,CLR,,0.00,WeatherDisplay:10.37,2013-01-01 07:05:00,
2013-01-01 02:10:00,46.1,27.5,29.40,WSW,239,1.1,1.1,48,0.00,CLR,,0.00,WeatherDisplay:10.37,2013-01-01 07:10:00,
2013-01-01 02:15:00,46.1,27.5,29.40,WSW,237,4.6,4.6,48,0.00,CLR,,0.00,WeatherDisplay:10.37,2013-01-01 07:15:00,
2013-01-01 02:20:00,46.1,27.5,29.40,SW,234,3.5,3.5,48,0.00,CLR,,0.00,WeatherDisplay:10.37,2013-01-01 07:20:00,
2013-01-01 02:25:00,46.1,27.5,29.40,WSW,239,6.9,6.9,48,0.00,CLR,,0.00,WeatherDisplay:10.37,2013-01-01 07:25:00,
2013-01-01 02:30:00,46.1,27.5,29.40,SW,236,2.3,2.3,48,0.00,CLR,,0.00,WeatherDisplay:10.37,2013-01-01 07:30:00,
2013-01-01 02:35:00,46.1,27.0,29.40,SW,222,3.5,3.5,47,0.00,CLR,,0.00,WeatherDisplay:10.37,2013-01-01 07:35:00,
2013-01-01 02:40:00,46.0,27.4,29.39,SW,232,3.5,3.5,48,0.00,CLR,,0.00,WeatherDisplay:10.37,2013-01-01 07:40:00,
2013-01-01 02:45:00,46.0,27.9,29.39,SSW,199,3.5,3.5,49,0.00,CLR,,0.00,WeatherDisplay:10.37,2013-01-01 07:45:00,
2013-01-01 02:50:00,45.8,28.2,29.39,WSW,241,0.0,0.0,50,0.00,CLR,,0.00,WeatherDisplay:10.37,2013-01-01 07:50:00,
2013-01-01 02:55:00,45.8,28.2,29.38,WSW,258,0.0,0.0,50,0.00,CLR,,0.00,WeatherDisplay:10.37,2013-01-01 07:55:00,
2013-01-01 03:00:00,45.7,28.1,29.38,SW,226,2.3,0.0,50,0.00,CLR,,0.00,WeatherDisplay:10.37,2013-01-01 08:00:00,
2013-01-01 03:05:00,45.7,28.1,29.38,SW,232,1.1,1.1,50,0.00,CLR,,0.00,WeatherDisplay:10.37,2013-01-01 08:05:00,
2013-01-01 03:10:00,45.7,28.1,29.38,WSW,250,2.3,2.3,50,0.00,CLR,,0.00,WeatherDisplay:10.37,2013-01-01 08:10:00,
2013-01-01 03:15:00,45.7,28.6,29.38,WSW,250,1.1,1.1,51,0.00,CLR,,0.00,WeatherDisplay:10.37,2013-01-01 08:15:00,
2013-01-01 03:20:00,45.5,27.9,29.38,WSW,247,5.8,5.8,50,0.00,CLR,,0.00,WeatherDisplay:10.37,2013-01-01 08:20:00,
2013-01-01 03:25:00,45.7,28.1,29.38,SW,219,1.0,0.0,50,0.00,CLR,,0.00,WeatherDisplay:10.37,2013-01-01 08:25:00,
2013-01-01 03:30:00,45.7,28.6,29.38,SW,219,0.0,0.0,51,0.00,CLR,,0.00,WeatherDisplay:10.37,2013-01-01 08:30:00,
2013-01-01 03:35:00,45.5,27.9,29.38,SSW,199,4.6,4.6,50,0.00,CLR,,0.00,WeatherDisplay:10.37,2013-01-01 08:35:00,
2013-01-01 03:41:00,45.5,28.4,29.39,WSW,254,2.3,2.3,51,0.00,CLR,,0.00,WeatherDisplay:10.37,2013-01-01 08:41:00,
2013-01-01 03:46:00,45.7,28.6,29.39,WSW,254,3.5,3.5,51,0.00,CLR,,0.00,WeatherDisplay:10.37,2013-01-01 08:46:00,
2013-01-01 03:51:00,45.7,28.6,29.39,WSW,248,3.5,3.5,51,0.00,CLR,,0.00,WeatherDisplay:10.37,2013-01-01 08:51:00,
2013-01-01 03:56:00,45.7,28.1,29.39,West,264,4.6,4.6,50,0.00,CLR,,0.00,WeatherDisplay:10.37,2013-01-01 08:56:00,
2013-01-01 04:01:00,45.7,28.1,29.39,WSW,241,3.5,3.5,50,0.00,CLR,,0.00,WeatherDisplay:10.37,2013-01-01 09:01:00,
2013-01-01 04:06:00,45.7,28.1,29.39,West,263,5.8,5.8,50,0.00,CLR,,0.00,WeatherDisplay:10.37,2013-01-01 09:06:00,
2013-01-01 04:11:00,45.7,28.6,29.38,WSW,250,3.5,0.0,51,0.00,CLR,,0.00,WeatherDisplay:10.37,2013-01-01 09:11:00,
2013-01-01 04:16:00,45.5,28.4,29.38,SW,229,2.3,2.3,51,0.00,CLR,,0.00,WeatherDisplay:10.37,2013-01-01 09:16:00,
2013-01-01 04:21:00,45.4,28.3,29.38,SW,220,0.0,0.2,51,0.00,CLR,,0.00,WeatherDisplay:10.37,2013-01-01 09:21:00,
2013-01-01 04:26:00,45.4,28.3,29.37,WSW,240,2.3,2.3,51,0.00,CLR,,0.00,WeatherDisplay:10.37,2013-01-01 09:26:00,
2013-01-01 04:31:00,45.4,28.3,29.37,SW,234,3.0,3.0,51,0.00,CLR,,0.00,WeatherDisplay:10.37,2013-01-01 09:31:00,
2013-01-01 04:36:00,45.4,28.3,29.37,WSW,247,3.5,3.5,51,0.00,CLR,,0.00,WeatherDisplay:10.37,2013-01-01 09:36:00,
2013-01-01 04:41:00,45.5,28.4,29.39,WSW,250,3.5,3.5,51,0.00,CLR,,0.00,WeatherDisplay:10.37,2013-01-01 09:41:00,
2013-01-01 04:46:00,45.5,28.4,29.39,SW,217,4.0,4.0,51,0.00,CLR,,0.00,WeatherDisplay:10.37,2013-01-01 09:46:00,
2013-01-01 04:51:00,45.4,28.3,29.39,WSW,250,4.6,4.6,51,0.00,CLR,,0.00,WeatherDisplay:10.37,2013-01-01 09:51:00,
2013-01-01 04:56:00,45.4,28.8,29.37,SW,222,0.0,0.0,52,0.00,CLR,,0.00,WeatherDisplay:10.37,2013-01-01 09:56:00,
2013-01-01 05:01:00,45.4,28.3,29.37,WSW,247,3.5,3.5,51,0.00,CLR,,0.00,WeatherDisplay:10.37,2013-01-01 10:01:00,
2013-01-01 05:06:00,45.5,28.4,29.37,WSW,251,2.3,2.3,51,0.00,CLR,,0.00,WeatherDisplay:10.37,2013-01-01 10:06:00,
2013-01-01 05:11:00,45.5,28.4,29.36,SW,222,4.6,4.6,51,0.00,CLR,,0.00,WeatherDisplay:10.37,2013-01-01 10:11:00,
2013-01-01 05:16:00,45.5,28.4,29.36,SW,230,3.5,0.0,51,0.00,CLR,,0.00,WeatherDisplay:10.37,2013-01-01 10:16:00,
2013-01-01 05:21:00,45.5,28.4,29.36,WSW,248,4.6,4.6,51,0.00,CLR,,0.00,WeatherDisplay:10.37,2013-01-01 10:21:00,
2013-01-01 05:26:00,45.5,28.4,29.38,West,280,1.0,1.0,51,0.00,CLR,,0.00,WeatherDisplay:10.37,2013-01-01 10:26:00,
2013-01-01 05:31:00,45.5,28.4,29.38,NW,322,0.0,0.0,51,0.00,CLR,,0.00,WeatherDisplay:10.37,2013-01-01 10:31:00,
2013-01-01 05:36:00,45.5,28.4,29.38,WSW,258,2.3,2.3,51,0.00,CLR,,0.00,WeatherDisplay:10.37,2013-01-01 10:36:00,
2013-01-01 05:41:00,45.5,28.9,29.39,SW,236,3.5,3.5,52,0.00,CLR,,0.00,WeatherDisplay:10.37,2013-01-01 10:41:00,
2013-01-01 05:46:00,45.5,28.4,29.39,WNW,285,4.6,4.6,51,0.00,CLR,,0.00,WeatherDisplay:10.37,2013-01-01 10:46:00,
2013-01-01 05:51:00,45.5,28.9,29.39,WSW,248,5.8,5.8,52,0.00,CLR,,0.00,WeatherDisplay:10.37,2013-01-01 10:51:00,
2013-01-01 05:56:00,45.5,28.9,29.39,WSW,258,3.5,3.5,52,0.00,CLR,,0.00,WeatherDisplay:10.37,2013-01-01 10:56:00,
2013-01-01 06:01:00,45.5,28.9,29.39,SW,226,1.1,1.2,52,0.00,CLR,,0.00,WeatherDisplay:10.37,2013-01-01 11:01:00,
2013-01-01 06:06:00,45.5,28.9,29.39,WSW,244,1.1,1.7,52,0.00,CLR,,0.00,WeatherDisplay:10.37,2013-01-01 11:06:00,
2013-01-01 06:11:00,45.5,28.9,29.39,WSW,243,3.5,3.5,52,0.00,CLR,,0.00,WeatherDisplay:10.37,2013-01-01 11:11:00,
2013-01-01 06:16:00,45.5,29.3,29.39,WSW,239,2.3,2.3,53,0.00,CLR,,0.00,WeatherDisplay:10.37,2013-01-01 11:16:00,
2013-01-01 06:21:00,45.5,28.9,29.39,SW,230,3.5,0.0,52,0.00,CLR,,0.00,WeatherDisplay:10.37,2013-01-01 11:21:00,
2013-01-01 06:26:00,45.5,29.3,29.38,SSW,212,2.3,2.3,53,0.00,CLR,,0.00,WeatherDisplay:10.37,2013-01-01 11:26:00,
2013-01-01 06:31:00,45.5,28.9,29.38,SW,224,0.0,0.0,52,0.00,CLR,,0.00,WeatherDisplay:10.37,2013-01-01 11:31:00,
2013-01-01 06:36:00,45.5,29.3,29.38,WSW,241,0.0,0.0,53,0.00,CLR,,0.00,WeatherDisplay:10.37,2013-01-01 11:36:00,
2013-01-01 06:41:00,45.4,29.3,29.38,WSW,244,3.0,3.0,53,0.00,CLR,,0.00,WeatherDisplay:10.37,2013-01-01 11:41:00,
2013-01-01 06:46:00,45.4,29.7,29.38,WSW,248,0.0,0.0,54,0.00,CLR,,0.00,WeatherDisplay:10.37,2013-01-01 11:46:00,
2013-01-01 06:51:00,45.4,29.7,29.38,WSW,248,0.0,0.0,54,0.00,CLR,,0.00,WeatherDisplay:10.37,2013-01-01 11:51:00,
2013-01-01 06:56:00,45.2,29.5,29.39,WSW,248,0.0,0.0,54,0.00,CLR,,0.00,WeatherDisplay:10.37,2013-01-01 11:56:00,
2013-01-01 07:01:00,45.2,29.5,29.39,WSW,248,2.3,0.0,54,0.00,CLR,,0.00,WeatherDisplay:10.37,2013-01-01 12:01:00,
2013-01-01 07:06:00,45.1,29.4,29.39,WSW,248,0.0,0.0,54,0.00,CLR,,0.00,WeatherDisplay:10.37,2013-01-01 12:06:00,
2013-01-01 07:11:00,45.1,29.4,29.40,WSW,246,1.1,1.1,54,0.00,CLR,,0.00,WeatherDisplay:10.37,2013-01-01 12:11:00,
2013-01-01 07:16:00,44.9,29.2,29.40,WSW,244,5.8,5.8,54,0.00,CLR,,0.00,WeatherDisplay:10.37,2013-01-01 12:16:00,
2013-01-01 07:21:00,45.1,29.4,29.40,WSW,251,0.0,1.7,54,0.00,CLR,,0.00,WeatherDisplay:10.37,2013-01-01 12:21:00,
2013-01-01 07:26:00,45.1,29.4,29.40,SW,219,3.5,3.5,54,0.00,CLR,,0.00,WeatherDisplay:10.37,2013-01-01 12:26:00,
2013-01-01 07:31:00,45.2,29.5,29.40,WSW,241,5.8,5.8,54,0.00,CLR,,0.00,WeatherDisplay:10.37,2013-01-01 12:31:00,
2013-01-01 07:36:00,45.4,29.7,29.40,SW,230,5.8,5.8,54,0.00,CLR,,0.00,WeatherDisplay:10.37,2013-01-01 12:36:00,
2013-01-01 07:41:00,45.4,29.7,29.40,SW,217,3.5,3.5,54,0.00,CLR,,0.00,WeatherDisplay:10.37,2013-01-01 12:41:00,
2013-01-01 07:46:00,45.4,29.7,29.40,SW,227,4.6,4.6,54,0.00,CLR,,0.00,WeatherDisplay:10.37,2013-01-01 12:46:00,
2013-01-01 07:51:00,45.4,29.7,29.40,WSW,250,5.8,5.8,54,0.00,CLR,,0.00,WeatherDisplay:10.37,2013-01-01 12:51:00,
2013-01-01 07:56:00,45.4,30.2,29.40,SW,226,0.0,0.0,55,0.00,CLR,,0.00,WeatherDisplay:10.37,2013-01-01 12:56:00,
2013-01-01 08:01:00,45.4,29.7,29.40,SSW,213,3.5,0.0,54,0.00,CLR,,0.00,WeatherDisplay:10.37,2013-01-01 13:01:00,
2013-01-01 08:06:00,45.4,30.2,29.40,SW,217,3.5,3.5,55,0.00,CLR,,0.00,WeatherDisplay:10.37,2013-01-01 13:06:00,
2013-01-01 08:11:00,45.4,30.2,29.39,SSW,209,4.6,4.6,55,0.00,CLR,,0.00,WeatherDisplay:10.37,2013-01-01 13:11:00,
2013-01-01 08:16:00,45.2,30.0,29.39,SSW,210,1.1,1.1,55,0.00,CLR,,0.00,WeatherDisplay:10.37,2013-01-01 13:16:00,
2013-01-01 08:21:00,45.2,30.4,29.39,South,186,6.9,0.0,56,0.00,CLR,,0.00,WeatherDisplay:10.37,2013-01-01 13:21:00,
2013-01-01 08:26:00,45.4,30.6,29.40,NW,325,3.5,3.5,56,0.00,CLR,,0.00,WeatherDisplay:10.37,2013-01-01 13:26:00,
2013-01-01 08:31:00,45.4,30.6,29.40,SW,236,4.6,4.6,56,0.00,CLR,,0.00,WeatherDisplay:10.37,2013-01-01 13:31:00,
2013-01-01 08:36:00,45.4,31.0,29.40,WSW,239,5.8,5.8,57,0.00,CLR,,0.00,WeatherDisplay:10.37,2013-01-01 13:36:00,
2013-01-01 08:41:00,45.5,31.1,29.40,SW,229,5.8,5.8,57,0.00,CLR,,0.00,WeatherDisplay:10.37,2013-01-01 13:41:00,
2013-01-01 08:46:00,45.5,30.7,29.40,SSW,210,1.1,0.0,56,0.00,CLR,,0.00,WeatherDisplay:10.37,2013-01-01 13:46:00,
2013-01-01 08:51:00,45.2,30.4,29.40,SSW,208,3.5,3.5,56,0.00,CLR,,0.00,WeatherDisplay:10.37,2013-01-01 13:51:00,
2013-01-01 08:56:00,44.8,33.4,29.39,SSW,195,2.3,0.0,64,0.00,CLR,,0.00,WeatherDisplay:10.37,2013-01-01 13:56:00,
2013-01-01 09:01:00,44.5,34.2,29.39,WSW,256,5.0,5.0,67,0.00,CLR,,0.00,WeatherDisplay:10.37,2013-01-01 14:01:00,
2013-01-01 09:06:00,44.2,34.7,29.39,West,265,5.0,5.0,69,0.00,CLR,,0.00,WeatherDisplay:10.37,2013-01-01 14:06:00,
2013-01-01 09:11:00,43.8,34.6,29.40,SW,227,2.3,2.3,70,0.00,CLR,,0.00,WeatherDisplay:10.37,2013-01-01 14:11:00,
2013-01-01 09:16:00,43.6,35.5,29.40,SW,236,3.5,3.5,73,0.00,CLR,,0.00,WeatherDisplay:10.37,2013-01-01 14:16:00,
2013-01-01 09:21:00,43.5,35.4,29.40,SW,230,0.0,0.0,73,0.00,CLR,,0.00,WeatherDisplay:10.37,2013-01-01 14:21:00,
2013-01-01 09:26:00,43.3,35.2,29.40,WSW,243,0.0,0.0,73,0.00,CLR,,0.00,WeatherDisplay:10.37,2013-01-01 14:26:00,
2013-01-01 09:31:00,43.3,35.2,29.40,WSW,243,0.0,0.0,73,0.00,CLR,,0.00,WeatherDisplay:10.37,2013-01-01 14:31:00,
2013-01-01 09:36:00,43.3,35.2,29.40,WSW,243,0.0,0.0,73,0.00,CLR,,0.00,WeatherDisplay:10.37,2013-01-01 14:36:00,
2013-01-01 09:41:00,43.3,35.2,29.42,WSW,254,4.6,4.8,73,0.00,CLR,,0.00,WeatherDisplay:10.37,2013-01-01 14:41:00,
2013-01-01 09:46:00,43.3,35.2,29.42,SW,236,1.1,0.0,73,0.00,CLR,,0.00,WeatherDisplay:10.37,2013-01-01 14:46:00,
2013-01-01 09:51:00,43.3,35.2,29.42,WSW,257,5.8,6.0,73,0.00,CLR,,0.00,WeatherDisplay:10.37,2013-01-01 14:51:00,
2013-01-01 09:56:00,43.2,35.1,29.41,SW,230,4.6,5.0,73,0.00,CLR,,0.00,WeatherDisplay:10.37,2013-01-01 14:56:00,
2013-01-01 10:01:00,43.1,35.0,29.41,WSW,250,4.6,4.6,73,0.01,RA,,0.01,WeatherDisplay:10.37,2013-01-01 15:01:00,
2013-01-01 10:06:00,43.1,35.0,29.41,SW,230,6.9,6.9,73,0.01,RA,,0.01,WeatherDisplay:10.37,2013-01-01 15:06:00,
2013-01-01 10:11:00,43.1,38.0,29.39,WSW,237,1.1,1.1,82,0.01,CLR,,0.01,WeatherDisplay:10.37,2013-01-01 15:11:00,
2013-01-01 10:16:00,43.1,38.0,29.39,WSW,241,4.6,5.1,82,0.01,CLR,,0.01,WeatherDisplay:10.37,2013-01-01 15:16:00,
2013-01-01 10:21:00,43.2,38.1,29.39,WSW,253,4.6,4.6,82,0.01,CLR,,0.01,WeatherDisplay:10.37,2013-01-01 15:21:00,
2013-01-01 10:26:00,43.3,37.9,29.39,WSW,237,6.9,6.9,81,0.01,CLR,,0.01,WeatherDisplay:10.37,2013-01-01 15:26:00,
2013-01-01 10:31:00,43.5,38.1,29.39,WSW,239,3.5,3.5,81,0.01,CLR,,0.01,WeatherDisplay:10.37,2013-01-01 15:31:00,
2013-01-01 10:36:00,43.8,38.3,29.39,SSW,210,8.0,8.0,81,0.01,CLR,,0.01,WeatherDisplay:10.37,2013-01-01 15:36:00,
2013-01-01 10:41:00,43.9,38.1,29.37,WSW,248,3.5,3.5,80,0.01,CLR,,0.01,WeatherDisplay:10.37,2013-01-01 15:41:00,
2013-01-01 10:46:00,44.1,38.6,29.37,WSW,241,2.3,2.3,81,0.01,CLR,,0.01,WeatherDisplay:10.37,2013-01-01 15:46:00,
2013-01-01 10:51:00,44.1,39.0,29.37,SW,229,6.9,6.9,82,0.01,CLR,,0.01,WeatherDisplay:10.37,2013-01-01 15:51:00,
2013-01-01 10:56:00,44.1,39.0,29.35,South,184,6.9,6.9,82,0.01,CLR,,0.01,WeatherDisplay:10.37,2013-01-01 15:56:00,
2013-01-01 11:01:00,44.1,39.3,29.35,South,184,4.6,4.6,83,0.00,CLR,,0.01,WeatherDisplay:10.37,2013-01-01 16:01:00,
2013-01-01 11:06:00,44.1,39.3,29.35,WSW,256,8.1,8.1,83,0.00,CLR,,0.01,WeatherDisplay:10.37,2013-01-01 16:06:00,
2013-01-01 11:11:00,44.2,39.4,29.34,West,261,13.8,13.8,83,0.00,CLR,,0.01,WeatherDisplay:10.37,2013-01-01 16:11:00,
2013-01-01 11:16:00,44.5,39.3,29.34,WSW,256,17.3,17.3,82,0.00,CLR,,0.01,WeatherDisplay:10.37,2013-01-01 16:16:00,
2013-01-01 11:21:00,44.8,39.6,29.34,SW,215,9.2,9.2,82,0.00,CLR,,0.01,WeatherDisplay:10.37,2013-01-01 16:21:00,
2013-01-01 11:26:00,45.1,39.6,29.34,West,260,7.0,7.0,81,0.00,CLR,,0.01,WeatherDisplay:10.37,2013-01-01 16:26:00,
2013-01-01 11:31:00,45.1,39.3,29.34,WSW,239,6.0,6.0,80,0.00,CLR,,0.01,WeatherDisplay:10.37,2013-01-01 16:31:00,
2013-01-01 11:36:00,45.4,39.6,29.34,SW,224,5.8,5.8,80,0.00,CLR,,0.01,WeatherDisplay:10.37,2013-01-01 16:36:00,
2013-01-01 11:41:00,45.5,39.7,29.33,West,261,8.1,8.1,80,0.00,CLR,,0.01,WeatherDisplay:10.37,2013-01-01 16:41:00,
2013-01-01 11:46:00,45.7,39.9,29.33,South,181,8.1,8.1,80,0.00,CLR,,0.01,WeatherDisplay:10.37,2013-01-01 16:46:00,
2013-01-01 11:51:00,45.8,40.0,29.33,WSW,241,11.5,11.5,80,0.00,CLR,,0.01,WeatherDisplay:10.37,2013-01-01 16:51:00,
2013-01-01 11:56:00,45.8,40.3,29.32,WSW,244,11.5,11.5,81,0.00,CLR,,0.01,WeatherDisplay:10.37,2013-01-01 16:56:00,
2013-01-01 12:01:00,45.8,40.3,29.32,WSW,246,12.0,12.0,81,0.00,CLR,,0.01,WeatherDisplay:10.37,2013-01-01 17:01:00,
2013-01-01 12:06:00,45.8,40.6,29.32,SSW,203,10.4,10.4,82,0.00,CLR,,0.01,WeatherDisplay:10.37,2013-01-01 17:06:00,
2013-01-01 12:11:00,45.8,40.9,29.29,SW,220,11.0,11.0,83,0.00,CLR,,0.01,WeatherDisplay:10.37,2013-01-01 17:11:00,
2013-01-01 12:16:00,45.8,41.2,29.29,SSE,167,9.2,9.2,84,0.00,CLR,,0.01,WeatherDisplay:10.37,2013-01-01 17:16:00,
2013-01-01 12:21:00,46.0,41.4,29.29,SW,233,13.0,13.0,84,0.00,CLR,,0.01,WeatherDisplay:10.37,2013-01-01 17:21:00,
2013-01-01 12:26:00,46.1,41.5,29.29,WSW,240,11.5,11.5,84,0.00,CLR,,0.01,WeatherDisplay:10.37,2013-01-01 17:26:00,
2013-01-01 12:31:00,46.1,41.2,29.29,SW,224,16.1,16.1,83,0.00,CLR,,0.01,WeatherDisplay:10.37,2013-01-01 17:31:00,
2013-01-01 12:36:00,46.2,41.3,29.29,WSW,257,14.0,14.0,83,0.00,CLR,,0.01,WeatherDisplay:10.37,2013-01-01 17:36:00,
2013-01-01 12:41:00,46.2,41.0,29.29,SSW,195,13.8,13.8,82,0.00,CLR,,0.01,WeatherDisplay:10.37,2013-01-01 17:41:00,
2013-01-01 12:47:00,46.4,41.2,29.29,SW,227,10.4,10.4,82,0.00,CLR,,0.01,WeatherDisplay:10.37,2013-01-01 17:47:00,
2013-01-01 12:52:00,46.4,41.2,29.29,WSW,246,10.4,10.4,82,0.00,CLR,,0.01,WeatherDisplay:10.37,2013-01-01 17:52:00,
2013-01-01 12:57:00,46.5,41.3,29.28,SW,233,5.8,5.8,82,0.00,CLR,,0.01,WeatherDisplay:10.37,2013-01-01 17:57:00,
2013-01-01 13:02:00,46.5,41.3,29.28,SW,232,11.5,11.5,82,0.00,CLR,,0.01,WeatherDisplay:10.37,2013-01-01 18:02:00,
2013-01-01 13:07:00,46.5,41.0,29.28,WSW,251,10.4,10.4,81,0.00,CLR,,0.01,WeatherDisplay:10.37,2013-01-01 18:07:00,
2013-01-01 13:12:00,46.7,41.2,29.28,SW,229,8.1,8.1,81,0.00,CLR,,0.01,WeatherDisplay:10.37,2013-01-01 18:12:00,
2013-01-01 13:17:00,46.7,41.2,29.28,WSW,250,8.1,8.1,81,0.00,CLR,,0.01,WeatherDisplay:10.37,2013-01-01 18:17:00,
2013-01-01 13:22:00,46.7,41.2,29.28,WNW,292,3.5,3.5,81,0.00,CLR,,0.01,WeatherDisplay:10.37,2013-01-01 18:22:00,
2013-01-01 13:27:00,46.7,41.2,29.31,WSW,248,11.5,11.5,81,0.00,CLR,,0.01,WeatherDisplay:10.37,2013-01-01 18:27:00,
2013-01-01 13:32:00,46.5,41.0,29.31,WSW,243,4.6,4.6,81,0.00,CLR,,0.01,WeatherDisplay:10.37,2013-01-01 18:32:00,
2013-01-01 13:37:00,46.4,41.2,29.31,WNW,287,8.1,8.1,82,0.00,CLR,,0.01,WeatherDisplay:10.37,2013-01-01 18:37:00,
2013-01-01 13:42:00,46.2,41.3,29.29,SW,234,6.9,6.9,83,0.00,CLR,,0.01,WeatherDisplay:10.37,2013-01-01 18:42:00,
2013-01-01 13:47:00,46.2,41.3,29.29,SW,236,6.9,6.9,83,0.00,CLR,,0.01,WeatherDisplay:10.37,2013-01-01 18:47:00,
2013-01-01 13:52:00,46.2,41.6,29.29,SW,232,6.9,6.9,84,0.00,CLR,,0.01,WeatherDisplay:10.37,2013-01-01 18:52:00,
2013-01-01 13:57:00,46.1,41.8,29.29,West,265,11.5,11.5,85,0.00,CLR,,0.01,WeatherDisplay:10.37,2013-01-01 18:57:00,
2013-01-01 14:02:00,46.1,41.8,29.29,SW,236,10.4,10.4,85,0.00,CLR,,0.01,WeatherDisplay:10.37,2013-01-01 19:02:00,
2013-01-01 14:07:00,46.1,42.1,29.29,WSW,239,10.4,10.4,86,0.00,CLR,,0.01,WeatherDisplay:10.37,2013-01-01 19:07:00,
2013-01-01 14:12:00,46.0,42.6,29.30,WSW,244,5.8,6.7,88,0.01,RA,,0.02,WeatherDisplay:10.37,2013-01-01 19:12:00,
2013-01-01 14:17:00,46.0,42.6,29.30,West,270,6.9,7.0,88,0.01,RA,,0.02,WeatherDisplay:10.37,2013-01-01 19:17:00,
2013-01-01 14:22:00,46.0,42.9,29.30,NNW,328,4.6,4.6,89,0.01,CLR,,0.02,WeatherDisplay:10.37,2013-01-01 19:22:00,
2013-01-01 14:27:00,45.8,42.7,29.31,SW,220,6.0,6.0,89,0.01,CLR,,0.02,WeatherDisplay:10.37,2013-01-01 19:27:00,
2013-01-01 14:32:00,45.8,42.7,29.31,West,278,3.5,3.5,89,0.01,CLR,,0.02,WeatherDisplay:10.37,2013-01-01 19:32:00,
2013-01-01 14:37:00,45.7,42.6,29.31,West,261,5.8,5.8,89,0.01,CLR,,0.02,WeatherDisplay:10.37,2013-01-01 19:37:00,
2013-01-01 14:42:00,45.7,42.6,29.29,SW,230,3.5,3.5,89,0.02,RA,,0.03,WeatherDisplay:10.37,2013-01-01 19:42:00,
2013-01-01 14:47:00,45.7,42.6,29.29,West,275,3.5,3.5,89,0.02,RA,,0.03,WeatherDisplay:10.37,2013-01-01 19:47:00,
2013-01-01 14:52:00,45.7,43.5,29.29,West,278,0.0,0.0,92,0.02,,,0.03,WeatherDisplay:10.37,2013-01-01 19:52:00,
2013-01-01 14:57:00,45.8,43.6,29.27,WSW,237,3.5,3.5,92,0.02,CLR,,0.03,WeatherDisplay:10.37,2013-01-01 19:57:00,
2013-01-01 15:02:00,45.8,43.6,29.27,SSW,212,5.8,5.8,92,0.02,CLR,,0.03,WeatherDisplay:10.37,2013-01-01 20:02:00,
2013-01-01 15:07:00,45.8,43.6,29.27,SW,220,0.0,0.3,92,0.02,CLR,,0.03,WeatherDisplay:10.37,2013-01-01 20:07:00,
2013-01-01 15:12:00,45.8,43.6,29.27,SW,217,2.3,2.3,92,0.01,CLR,,0.03,WeatherDisplay:10.37,2013-01-01 20:12:00,
2013-01-01 15:17:00,46.0,43.8,29.27,WSW,240,4.6,4.6,92,0.01,CLR,,0.03,WeatherDisplay:10.37,2013-01-01 20:17:00,
2013-01-01 15:22:00,46.1,44.2,29.27,SW,220,5.8,5.8,93,0.01,CLR,,0.03,WeatherDisplay:10.37,2013-01-01 20:22:00,
2013-01-01 15:27:00,46.1,44.5,29.27,WSW,240,6.9,6.9,94,0.01,CLR,,0.03,WeatherDisplay:10.37,2013-01-01 20:27:00,
2013-01-01 15:32:00,46.2,44.6,29.27,WSW,243,5.8,5.8,94,0.01,CLR,,0.03,WeatherDisplay:10.37,2013-01-01 20:32:00,
2013-01-01 15:37:00,46.4,44.8,29.27,West,264,6.9,6.9,94,0.01,CLR,,0.03,WeatherDisplay:10.37,2013-01-01 20:37:00,
2013-01-01 15:42:00,46.4,44.8,29.28,WNW,285,2.3,2.3,94,0.00,CLR,,0.03,WeatherDisplay:10.37,2013-01-01 20:42:00,
2013-01-01 15:47:00,46.5,44.9,29.28,West,260,3.5,4.3,94,0.00,CLR,,0.03,WeatherDisplay:10.37,2013-01-01 20:47:00,
2013-01-01 15:52:00,46.5,44.9,29.28,WSW,243,6.9,6.9,94,0.00,CLR,,0.03,WeatherDisplay:10.37,2013-01-01 20:52:00,
2013-01-01 15:57:00,46.5,44.9,29.27,SSW,212,10.4,10.4,94,0.01,RA,,0.04,WeatherDisplay:10.37,2013-01-01 20:57:00,
2013-01-01 16:02:00,46.7,45.1,29.27,SW,229,8.0,8.0,94,0.01,RA,,0.04,WeatherDisplay:10.37,2013-01-01 21:02:00,
2013-01-01 16:07:00,46.7,45.1,29.27,SSW,209,6.9,6.9,94,0.01,CLR,,0.04,WeatherDisplay:10.37,2013-01-01 21:07:00,
2013-01-01 16:12:00,46.8,45.4,29.26,SSW,206,2.3,3.3,95,0.01,CLR,,0.04,WeatherDisplay:10.37,2013-01-01 21:12:00,
2013-01-01 16:17:00,46.8,45.4,29.26,SSW,193,6.9,6.9,95,0.01,CLR,,0.04,WeatherDisplay:10.37,2013-01-01 21:17:00,
2013-01-01 16:22:00,47.0,45.6,29.26,SW,229,6.9,6.9,95,0.01,CLR,,0.04,WeatherDisplay:10.37,2013-01-01 21:22:00,
2013-01-01 16:27:00,47.1,45.7,29.27,NNW,344,6.0,6.0,95,0.01,CLR,,0.04,WeatherDisplay:10.37,2013-01-01 21:27:00,
2013-01-01 16:32:00,47.3,45.9,29.27,NNW,347,5.8,5.8,95,0.02,RA,,0.05,WeatherDisplay:10.37,2013-01-01 21:32:00,
2013-01-01 16:37:00,47.1,45.7,29.27,North,0,6.9,6.9,95,0.02,RA,,0.05,WeatherDisplay:10.37,2013-01-01 21:37:00,
2013-01-01 16:42:00,47.0,45.6,29.30,NNW,347,4.6,4.6,95,0.02,,,0.05,WeatherDisplay:10.37,2013-01-01 21:42:00,
2013-01-01 16:47:00,46.8,45.4,29.30,NW,320,5.8,5.8,95,0.02,CLR,,0.05,WeatherDisplay:10.37,2013-01-01 21:47:00,
2013-01-01 16:52:00,46.7,45.3,29.30,North,353,5.8,5.8,95,0.02,CLR,,0.05,WeatherDisplay:10.37,2013-01-01 21:52:00,
2013-01-01 16:57:00,46.7,45.3,29.31,North,354,3.5,3.5,95,0.01,CLR,,0.05,WeatherDisplay:10.37,2013-01-01 21:57:00,
2013-01-01 17:02:00,46.7,45.3,29.31,NNE,25,3.5,0.0,95,0.01,CLR,,0.05,WeatherDisplay:10.37,2013-01-01 22:02:00,
2013-01-01 17:07:00,46.7,45.3,29.31,NNE,25,0.0,0.0,95,0.01,CLR,,0.05,WeatherDisplay:10.37,2013-01-01 22:07:00,
2013-01-01 17:12:00,46.7,45.3,29.31,North,1,0.0,0.0,95,0.01,CLR,,0.05,WeatherDisplay:10.37,2013-01-01 22:12:00,
2013-01-01 17:17:00,46.7,45.3,29.31,North,0,0.0,0.0,95,0.01,CLR,,0.05,WeatherDisplay:10.37,2013-01-01 22:17:00,
2013-01-01 17:22:00,46.7,45.3,29.31,North,0,0.0,0.0,95,0.01,CLR,,0.05,WeatherDisplay:10.37,2013-01-01 22:22:00,
2013-01-01 17:27:00,46.7,45.3,29.30,North,0,0.0,0.0,95,0.01,CLR,,0.05,WeatherDisplay:10.37,2013-01-01 22:27:00,
2013-01-01 17:32:00,46.7,45.3,29.30,North,0,0.0,0.0,95,0.00,CLR,,0.05,WeatherDisplay:10.37,2013-01-01 22:32:00,
2013-01-01 17:37:00,46.7,45.3,29.30,North,0,0.0,0.0,95,0.00,CLR,,0.05,WeatherDisplay:10.37,2013-01-01 22:37:00,
2013-01-01 17:42:00,46.7,45.3,29.30,North,0,0.0,0.0,95,0.00,CLR,,0.05,WeatherDisplay:10.37,2013-01-01 22:42:00,
2013-01-01 17:47:00,46.7,45.3,29.30,North,0,0.0,0.0,95,0.00,CLR,,0.05,WeatherDisplay:10.37,2013-01-01 22:47:00,
2013-01-01 17:52:00,46.7,45.3,29.30,North,0,0.0,0.0,95,0.00,CLR,,0.05,WeatherDisplay:10.37,2013-01-01 22:52:00,
2013-01-01 17:57:00,46.7,45.3,29.30,North,0,0.0,0.0,95,0.00,CLR,,0.05,WeatherDisplay:10.37,2013-01-01 22:57:00,
2013-01-01 18:02:00,46.7,45.3,29.30,NNE,25,0.0,0.0,95,0.00,CLR,,0.05,WeatherDisplay:10.37,2013-01-01 23:02:00,
2013-01-01 18:07:00,46.1,45.0,29.30,NNE,25,0.0,0.0,96,0.03,RA,,0.08,WeatherDisplay:10.37,2013-01-01 23:07:00,
2013-01-01 18:12:00,46.1,45.0,29.31,NNE,25,0.0,0.0,96,0.03,RA,,0.08,WeatherDisplay:10.37,2013-01-01 23:12:00,
2013-01-01 18:17:00,46.1,45.0,29.31,North,1,0.0,0.0,96,0.03,,,0.08,WeatherDisplay:10.37,2013-01-01 23:17:00,
2013-01-01 18:22:00,46.1,45.0,29.31,North,0,0.0,0.0,96,0.03,CLR,,0.08,WeatherDisplay:10.37,2013-01-01 23:22:00,
2013-01-01 18:27:00,46.1,45.0,29.32,North,0,0.0,0.0,96,0.03,CLR,,0.08,WeatherDisplay:10.37,2013-01-01 23:27:00,
2013-01-01 18:32:00,46.1,45.0,29.32,North,0,0.0,0.0,96,0.03,CLR,,0.08,WeatherDisplay:10.37,2013-01-01 23:32:00,
2013-01-01 18:37:00,46.1,45.0,29.32,North,0,0.0,0.0,96,0.03,CLR,,0.08,WeatherDisplay:10.37,2013-01-01 23:37:00,
2013-01-01 18:42:00,46.1,45.0,29.31,North,0,0.0,0.0,96,0.03,CLR,,0.08,WeatherDisplay:10.37,2013-01-01 23:42:00,
2013-01-01 18:47:00,46.1,45.0,29.31,North,0,0.0,0.0,96,0.03,CLR,,0.08,WeatherDisplay:10.37,2013-01-01 23:47:00,
2013-01-01 18:52:00,46.1,45.0,29.31,SW,227,0.0,0.0,96,0.03,CLR,,0.08,WeatherDisplay:10.37,2013-01-01 23:52:00,
2013-01-01 18:57:00,46.8,46.0,29.31,NNW,336,0.0,0.0,97,0.05,RA,,0.10,WeatherDisplay:10.37,2013-01-01 23:57:00,
2013-01-01 19:02:00,46.8,46.0,29.31,NNW,336,0.0,0.0,97,0.05,RA,,0.10,WeatherDisplay:10.37,2013-01-02 00:02:00,
2013-01-01 19:07:00,46.8,46.0,29.31,NNW,336,0.0,0.0,97,0.02,,,0.10,WeatherDisplay:10.37,2013-01-02 00:07:00,
2013-01-01 19:12:00,46.8,46.0,29.32,NNW,336,0.0,0.0,97,0.02,CLR,,0.10,WeatherDisplay:10.37,2013-01-02 00:12:00,
2013-01-01 19:17:00,46.8,46.0,29.32,NNW,336,0.0,0.0,97,0.02,CLR,,0.10,WeatherDisplay:10.37,2013-01-02 00:17:00,
2013-01-01 19:22:00,46.8,46.0,29.32,NNW,336,0.0,0.0,97,0.02,CLR,,0.10,WeatherDisplay:10.37,2013-01-02 00:22:00,
2013-01-01 19:27:00,46.8,46.0,29.32,NNW,335,0.0,0.0,97,0.02,CLR,,0.10,WeatherDisplay:10.37,2013-01-02 00:27:00,
2013-01-01 19:32:00,46.8,46.0,29.32,NNW,335,0.0,0.0,97,0.03,RA,,0.11,WeatherDisplay:10.37,2013-01-02 00:32:00,
2013-01-01 19:37:00,46.8,46.0,29.32,NNW,335,0.0,0.0,97,0.03,RA,,0.11,WeatherDisplay:10.37,2013-01-02 00:37:00,
2013-01-01 19:42:00,46.8,46.0,29.32,NNW,335,0.0,0.0,97,0.03,,,0.11,WeatherDisplay:10.37,2013-01-02 00:42:00,
2013-01-01 19:47:00,46.8,46.0,29.32,NNW,335,0.0,0.0,97,0.03,CLR,,0.11,WeatherDisplay:10.37,2013-01-02 00:47:00,
2013-01-01 19:52:00,47.0,46.2,29.32,NNW,335,0.0,0.0,97,0.03,CLR,,0.11,WeatherDisplay:10.37,2013-01-02 00:52:00,
2013-01-01 19:57:00,47.0,46.2,29.32,NNW,335,0.0,0.0,97,0.02,RA,,0.12,WeatherDisplay:10.37,2013-01-02 00:57:00,
2013-01-01 20:02:00,47.3,46.8,29.32,SW,226,0.0,0.0,98,0.02,RA,,0.12,WeatherDisplay:10.37,2013-01-02 01:02:00,
2013-01-01 20:07:00,47.3,46.8,29.32,SW,226,0.0,0.0,98,0.02,,,0.12,WeatherDisplay:10.37,2013-01-02 01:07:00,
2013-01-01 20:12:00,47.3,46.8,29.32,SW,226,0.0,0.0,98,0.02,CLR,,0.12,WeatherDisplay:10.37,2013-01-02 01:12:00,
2013-01-01 20:17:00,47.1,46.3,29.32,SW,226,0.0,0.0,97,0.03,RA,,0.13,WeatherDisplay:10.37,2013-01-02 01:17:00,
2013-01-01 20:22:00,47.0,46.2,29.32,SW,226,0.0,0.0,97,0.03,RA,,0.13,WeatherDisplay:10.37,2013-01-02 01:22:00,
2013-01-01 20:27:00,46.8,46.0,29.33,SW,226,0.0,0.0,97,0.03,CLR,,0.13,WeatherDisplay:10.37,2013-01-02 01:27:00,
2013-01-01 20:32:00,46.7,45.9,29.33,SW,226,0.0,0.0,97,0.02,CLR,,0.13,WeatherDisplay:10.37,2013-01-02 01:32:00,
2013-01-01 20:37:00,46.7,45.9,29.33,SW,226,0.0,0.0,97,0.02,CLR,,0.13,WeatherDisplay:10.37,2013-01-02 01:37:00,
2013-01-01 20:42:00,46.5,45.7,29.33,SW,226,0.0,0.0,97,0.03,RA,,0.14,WeatherDisplay:10.37,2013-01-02 01:42:00,
2013-01-01 20:47:00,46.5,46.0,29.33,SW,226,0.0,0.0,98,0.03,RA,,0.14,WeatherDisplay:10.37,2013-01-02 01:47:00,
2013-01-01 20:52:00,46.5,46.0,29.33,SW,226,0.0,0.0,98,0.03,,,0.14,WeatherDisplay:10.37,2013-01-02 01:52:00,
2013-01-01 20:57:00,46.5,46.0,29.32,North,11,0.0,0.0,98,0.02,CLR,,0.14,WeatherDisplay:10.37,2013-01-02 01:57:00,
2013-01-01 21:02:00,46.5,46.0,29.32,North,0,0.0,0.0,98,0.02,CLR,,0.14,WeatherDisplay:10.37,2013-01-02 02:02:00,
2013-01-01 21:07:00,46.5,46.0,29.32,North,0,0.0,0.0,98,0.02,CLR,,0.14,WeatherDisplay:10.37,2013-01-02 02:07:00,
2013-01-01 21:12:00,46.7,46.2,29.32,SW,226,0.0,0.0,98,0.02,CLR,,0.14,WeatherDisplay:10.37,2013-01-02 02:12:00,
2013-01-01 21:17:00,46.7,46.2,29.32,SW,226,0.0,0.0,98,0.03,RA,,0.16,WeatherDisplay:10.37,2013-01-02 02:17:00,
2013-01-01 21:22:00,46.7,46.2,29.32,SW,226,0.0,0.0,98,0.03,RA,,0.16,WeatherDisplay:10.37,2013-01-02 02:22:00,
2013-01-01 21:27:00,46.7,46.2,29.32,SW,226,0.0,0.0,98,0.03,CLR,,0.16,WeatherDisplay:10.37,2013-01-02 02:27:00,
2013-01-01 21:32:00,46.7,46.2,29.32,North,0,0.0,0.0,98,0.03,CLR,,0.16,WeatherDisplay:10.37,2013-01-02 02:32:00,
2013-01-01 21:37:00,46.7,46.2,29.32,North,0,0.0,0.0,98,0.03,CLR,,0.16,WeatherDisplay:10.37,2013-01-02 02:37:00,
2013-01-01 21:42:00,46.7,46.2,29.33,North,0,0.0,0.0,98,0.02,CLR,,0.16,WeatherDisplay:10.37,2013-01-02 02:42:00,
2013-01-01 21:47:00,46.7,46.2,29.33,SW,226,0.0,0.0,98,0.03,RA,,0.17,WeatherDisplay:10.37,2013-01-02 02:47:00,
2013-01-01 21:52:00,46.7,46.2,29.33,SW,226,0.0,0.0,98,0.03,RA,,0.17,WeatherDisplay:10.37,2013-01-02 02:52:00,
2013-01-01 21:57:00,46.7,46.2,29.32,SW,226,0.0,0.0,98,0.03,CLR,,0.17,WeatherDisplay:10.37,2013-01-02 02:57:00,
2013-01-01 22:02:00,46.7,46.2,29.32,SW,226,0.0,0.0,98,0.04,RA,,0.18,WeatherDisplay:10.37,2013-01-02 03:02:00,
2013-01-01 22:07:00,46.7,46.2,29.32,SW,226,0.0,0.0,98,0.04,RA,,0.18,WeatherDisplay:10.37,2013-01-02 03:07:00,
2013-01-01 22:12:00,46.5,46.0,29.32,SW,226,0.0,0.0,98,0.05,RA,,0.19,WeatherDisplay:10.37,2013-01-02 03:12:00,
2013-01-01 22:17:00,46.5,46.0,29.32,SW,226,0.0,0.0,98,0.03,RA,,0.19,WeatherDisplay:10.37,2013-01-02 03:17:00,
2013-01-01 22:22:00,46.5,46.0,29.32,SW,226,0.0,0.0,98,0.03,CLR,,0.19,WeatherDisplay:10.37,2013-01-02 03:22:00,
2013-01-01 22:27:00,46.5,46.0,29.32,SW,226,0.0,0.0,98,0.03,CLR,,0.19,WeatherDisplay:10.37,2013-01-02 03:27:00,
2013-01-01 22:32:00,46.5,46.0,29.32,SW,226,0.0,0.0,98,0.03,CLR,,0.19,WeatherDisplay:10.37,2013-01-02 03:32:00,
2013-01-01 22:37:00,46.5,46.0,29.32,SW,226,0.0,0.0,98,0.03,CLR,,0.19,WeatherDisplay:10.37,2013-01-02 03:37:00,
2013-01-01 22:42:00,46.5,46.0,29.31,SW,226,0.0,0.0,98,0.03,CLR,,0.19,WeatherDisplay:10.37,2013-01-02 03:42:00,
2013-01-01 22:47:00,46.5,46.0,29.31,SW,226,0.0,0.0,98,0.02,CLR,,0.19,WeatherDisplay:10.37,2013-01-02 03:47:00,
2013-01-01 22:52:00,46.4,45.9,29.31,SW,226,0.0,0.0,98,0.02,CLR,,0.19,WeatherDisplay:10.37,2013-01-02 03:52:00,
2013-01-01 22:57:00,46.4,45.9,29.31,SW,226,0.0,0.0,98,0.03,RA,,0.20,WeatherDisplay:10.37,2013-01-02 03:57:00,
2013-01-01 23:02:00,46.5,46.0,29.31,SW,226,0.0,0.0,98,0.02,RA,,0.20,WeatherDisplay:10.37,2013-01-02 04:02:00,
2013-01-01 23:07:00,46.5,46.0,29.31,SW,226,0.0,0.0,98,0.02,CLR,,0.20,WeatherDisplay:10.37,2013-01-02 04:07:00,
2013-01-01 23:12:00,46.5,46.0,29.31,SW,226,0.0,0.0,98,0.01,CLR,,0.20,WeatherDisplay:10.37,2013-01-02 04:12:00,
2013-01-01 23:17:00,46.5,46.0,29.31,SW,226,0.0,0.0,98,0.01,CLR,,0.20,WeatherDisplay:10.37,2013-01-02 04:17:00,
2013-01-01 23:22:00,46.4,45.9,29.31,SW,226,0.0,0.0,98,0.01,CLR,,0.20,WeatherDisplay:10.37,2013-01-02 04:22:00,
2013-01-01 23:27:00,46.4,45.9,29.31,SW,226,0.0,0.0,98,0.02,RA,,0.21,WeatherDisplay:10.37,2013-01-02 04:27:00,
2013-01-01 23:32:00,46.4,45.9,29.31,SW,226,0.0,0.0,98,0.02,RA,,0.21,WeatherDisplay:10.37,2013-01-02 04:32:00,
2013-01-01 23:37:00,46.2,45.7,29.31,SW,226,0.0,0.0,98,0.02,,,0.21,WeatherDisplay:10.37,2013-01-02 04:37:00,
2013-01-01 23:42:00,46.2,45.7,29.31,SW,226,0.0,0.0,98,0.02,CLR,,0.21,WeatherDisplay:10.37,2013-01-02 04:42:00,
2013-01-01 23:47:00,46.2,45.7,29.31,SW,226,0.0,0.0,98,0.03,RA,,0.22,WeatherDisplay:10.37,2013-01-02 04:47:00,
2013-01-01 23:52:00,46.2,45.7,29.31,SW,226,0.0,0.0,98,0.03,RA,,0.22,WeatherDisplay:10.37,2013-01-02 04:52:00,
2013-01-01 23:57:00,46.2,45.7,29.31,SW,226,0.0,0.0,98,0.02,,,0.22,WeatherDisplay:10.37,2013-01-02 04:57:00,